THOR AGENA B DEB, 1948

Orbit data source: Space-Track

THOR AGENA B DEB, 1948 is space debris in LEO originally from a launch on Mon, 29 Nov 1965 UTC launched from the Air Force Western Test Range (AFWTR). Debris objects in space refer to the collection of defunct objects orbiting the Earth. Examples of debris include non-operational satellites, rocket bodies, and fragments generated from explosions, collisions, or faulty payload assembly.

Loading next visibility...
Identifier
1948, 1965-098F
Orbit
LEO
Country
Flag of USUS
Related business
Manufacturer
Unknown
Mission
Spacecraft
Bus & Motor
Unknown
Mass
~1 kg wet, ~1 kg dry
Launch date (UTC)
1965-11-29 (61 years ago)
Launch vehicle
Unknown
Launch site
Air Force Western Test Range (AFWTR)
Object type
Payload
Rocket body
Debris
Shape & HBR
Unknown
Radar Cross Section
Medium (>0.1 m² and <1 m²)

Expand to show TLE details & history
Last TLE update: 17 hours ago

TLE from 17 hours ago
0 THOR AGENA B DEB
1 01948U 65098F   26163.05892979  .00002863  00000-0  52272-3 0  9997
2 01948  79.8467 281.6412 0749651 266.3099  85.2095 13.61109692808470
Epoch: 2026-06-12T01:24Z
TLE epoch observation values (Epoch: 2026-06-12T01:24:51.533Z)
Latitude
-0.0001°
Longitude
0.03265°
Altitude
1,029.657 km
Speed
7.339 km/s
True Right ascension
18h 46m 33s
True Declination
0° 00' 00"
Sunlit
Object was in full shadow at epoch
Visualization orbit readout
Latitude
Unknown
Longitude
Unknown
Altitude
Unknown
Speed
Unknown
Apparent Right ascension
Unknown
Apparent Declination
Unknown
Sunlit
N/A
Visualization observer readout
Local Sidereal Time
05:07:56
Azimuth
Unknown
Elevation
Unknown
Doppler factor
Unknown
Orbital elements
Apogee altitude
1,584.223 km
Perigee altitude
473.677 km
Semi-major axis
7,407.087 km
Eccentricity
0.07497
Inclination
79.8467°
RAAN
281.6412°
Arg. of periapsis
266.3099°
True anomaly
93.80497°
Mean anomaly
85.2095°
Eccentric anomaly
89.50452°
Mean motion
3.40465 °/min
Orbital period
105.74 mins
BSTAR
0.00052272
Loading maneuver chart data...
Computing Atmospheric mass density...
Loading historical data...
Loading historical data...
Loading historical data...
Loading historical data...
Loading historical data...
Loading historical data...
Loading historical data...

Documentation

Showing up to 5 results
|